Dewpoint
69 70 70 69 69 68 67 67 67 67 66 65 65 64 64 66 66 65 66 66 67 69 69 68 70 71 70 71 70 71 72 72 73 74 75 74 73 72 73 72 71 72 73 72 73 74 73 71 71 71 72 72 72 72 73 73 73 73 73 73 72 71 70 68 66 68 69 72 71 70 71 72 69 69 71 72 73 73 74 75 75 74 73 74 73
69 69 69 69 68 67 67 67 67 66 66 65 65 64 64 64 65 65 66 66 67 68 69 68 70 70 70 71 71 71 72 72 73 74 75 74 73 73 73 72 72 72 71 71 71 73 71 70 71 72 72 72 73 72 72 73 73 73 73 73 71 70 72 69 68 68 67 70 70 71 70 69 66 67 70 71 71 69 66 64 62 62 64 72 73
69 69 69 68 68 67 67 66 66 66 65 65 64 64 64 63 65 65 65 66 67 67 68 68 69 70 70 70 70 70 71 71 73 74 74 74 73 73 73 73 72 72 71 71 72 71 71 70 71 72 73 72 72 72 73 72 72 72 72 72 71 70 70 70 68 67 68 68 69 70 69 66 65 66 67 70 69 65 60 57 57 58 60 60 68
70 69 69 68 67 67 67 66 66 66 65 65 64 64 63 63 65 65 65 65 66 67 67 67 68 70 69 70 70 70 71 72 73 73 74 74 74 73 73 73 73 72 71 72 71 70 70 70 70 71 72 71 71 71 72 72 71 72 72 71 70 69 69 69 70 68 68 67 67 67 66 67 66 65 67 67 66 65 61 60 58 58 57 58 60
69 69 68 67 67 66 66 66 66 66 65 65 64 63 63 63 63 64 65 65 66 67 68 67 67 70 69 70 70 71 72 72 73 73 74 75 75 74 73 73 73 72 72 72 73 70 71 70 71 71 71 71 71 71 71 70 71 71 71 71 70 70 70 69 70 69 68 65 65 65 66 66 66 64 65 65 66 65 63 62 59 59 58 57 59
68 68 68 67 67 66 66 66 66 65 65 65 64 64 63 63 63 64 65 65 66 66 67 68 68 68 69 69 70 71 72 73 73 74 74 75 75 74 73 73 73 72 72 72 71 71 70 70 71 71 71 71 70 70 70 70 70 70 70 70 71 71 70 70 70 69 67 65 64 63 65 65 63 62 63 64 64 64 63 63 63 60 57 56 57
71 70 69 68 67 66 66 66 66 65 66 65 65 65 64 63 63 64 65 65 65 67 68 68 69 68 69 69 70 72 73 73 73 73 74 75 74 73 73 73 72 71 71 71 71 70 70 71 71 71 71 70 70 70 69 69 70 69 69 69 70 71 70 70 68 66 65 63 63 64 62 62 62 61 62 63 62 62 62 61 60 62 56 54 55
71 70 69 68 67 67 66 66 66 66 66 66 65 65 65 63 63 64 66 65 65 65 66 66 67 68 68 69 70 72 73 73 73 73 74 75 74 74 73 72 71 71 71 71 71 71 71 72 71 71 70 70 69 69 69 68 68 68 68 68 70 70 69 67 65 64 63 62 62 61 61 61 60 61 62 60 59 59 60 61 60 60 56 52 50
70 70 69 68 67 68 70 67 66 67 67 66 66 65 65 65 64 64 66 65 65 64 66 66 66 67 67 69 71 72 72 73 73 73 75 75 74 73 73 72 71 71 71 71 71 72 72 71 71 72 72 72 72 71 71 70 67 66 66 66 67 67 66 65 64 63 62 61 61 60 59 58 59 59 59 59 59 59 60 59 59 61 58 50 48
70 70 70 70 69 68 71 71 68 66 67 66 66 66 65 65 65 64 65 66 65 65 64 66 66 66 69 71 71 72 72 73 75 75 75 74 73 73 72 71 71 71 71 71 71 72 72 72 73 73 72 71 71 70 70 69 68 67 65 65 65 64 63 63 62 61 60 59 59 57 55 55 56 58 58 58 59 57 56 57 56 56 53 51 50
70 69 70 71 71 70 71 74 71 68 67 67 66 66 65 65 66 66 65 65 65 65 64 64 65 67 70 72 72 72 72 73 75 71 72 74 73 72 72 71 71 71 71 71 71 71 70 70 69 69 69 69 68 68 67 69 69 68 67 66 65 63 61 60 60 59 58 55 54 53 53 53 54 56 56 57 56 53 54 56 54 51 49 47 46
69 70 70 70 71 71 72 73 72 70 71 71 71 70 68 70 69 68 66 64 65 65 64 64 68 70 72 72 71 71 70 73 69 70 71 71 73 73 72 71 71 71 71 71 70 68 68 67 67 67 66 66 65 64 65 66 65 66 65 65 64 64 63 60 58 54 52 51 50 51 50 51 53 55 55 55 53 51 52 54 53 49 48 47 47
70 70 70 70 71 71 72 73 72 71 69 70 70 69 70 70 70 70 69 68 67 66 67 69 70 71 71 70 69 69 68 68 67 69 69 69 71 73 72 71 71 70 70 69 68 67 67 67 66 65 66 66 65 63 62 62 62 62 61 60 60 59 57 57 57 54 51 50 50 50 51 51 51 54 57 55 56 50 50 52 52 50 50 48 48
68 68 69 70 70 70 71 71 70 70 70 70 70 69 70 70 70 70 72 71 69 69 70 71 71 70 69 69 68 67 67 68 66 68 68 68 69 72 71 71 71 70 69 68 68 67 66 65 63 62 61 60 59 58 57 57 57 57 56 55 55 57 58 58 57 56 55 50 49 49 51 52 52 52 56 55 53 52 50 50 52 53 51 50 51
67 67 68 68 68 69 70 69 69 70 70 70 70 70 70 69 69 70 71 71 70 71 71 70 69 69 69 68 67 67 67 66 65 66 66 66 68 71 70 70 69 69 69 68 66 65 64 63 61 59 58 57 58 57 56 55 54 54 53 52 52 52 51 50 50 50 52 49 49 50 52 53 53 52 51 51 52 53 52 51 51 51 52 53 52
66 67 67 67 68 69 70 69 69 69 69 70 69 69 69 70 69 69 69 69 70 71 70 69 69 68 67 67 67 67 67 64 64 64 64 65 67 69 68 68 67 67 65 64 64 63 62 60 59 58 58 59 60 59 58 55 54 54 55 55 56 57 58 60 56 56 55 52 52 51 52 54 58 58 57 52 51 51 54 52 51 50 48 49 48
65 65 67 67 68 69 70 68 67 69 69 69 69 69 69 69 69 70 69 70 70 70 70 69 68 67 67 67 67 66 66 64 62 62 62 63 66 67 67 66 65 65 64 64 64 62 61 59 58 58 59 59 62 59 60 58 54 54 54 54 55 55 56 58 59 59 58 58 56 55 56 56 56 55 55 56 56 54 49 48 48 49 49 47 49
67 66 66 67 69 70 69 69 68 68 68 69 69 69 69 69 69 70 69 69 70 70 69 68 68 68 68 67 67 66 66 63 60 60 61 63 66 66 65 65 65 64 64 64 63 62 61 62 62 60 60 60 60 59 60 59 55 55 54 54 54 55 55 56 57 56 57 57 57 56 55 55 55 56 57 56 56 55 49 47 48 49 50 51 47
68 67 68 69 69 69 69 69 68 68 68 68 69 69 69 69 68 68 68 68 68 69 69 67 67 68 67 67 68 66 65 62 58 59 60 61 65 65 65 64 63 63 62 61 61 62 64 65 64 63 62 61 58 59 60 60 59 58 58 56 56 56 56 51 49 49 49 49 50 50 53 52 51 51 54 55 56 55 51 50 50 49 50 50 49
68 69 69 69 69 69 69 69 68 67 67 68 68 68 68 68 68 68 68 68 68 67 67 67 67 66 67 67 67 66 65 64 62 58 59 60 62 66 65 63 62 61 60 59 58 57 58 58 59 57 55 54 54 53 54 56 57 56 55 55 53 51 51 51 52 49 49 49 49 51 52 51 48 48 48 50 52 54 52 52 50 50 49 49 49
67 68 68 68 68 68 67 67 67 66 66 66 67 67 68 68 68 68 68 68 68 67 67 67 66 66 66 66 65 65 65 64 62 57 57 59 60 63 64 63 61 60 60 59 57 57 56 57 57 55 52 52 52 52 52 54 58 57 56 55 55 57 55 51 52 54 51 53 55 53 51 51 50 49 50 50 51 50 53 51 51 51 50 48 47
65 65 66 66 66 66 66 66 66 65 66 65 65 65 65 66 67 66 67 66 67 66 66 66 65 65 65 65 65 65 65 64 61 58 57 57 58 60 62 62 61 59 57 56 56 56 55 56 55 54 51 51 50 50 50 52 55 57 55 52 53 55 53 54 51 51 51 51 51 52 51 51 49 49 50 50 50 54 48 48 50 51 51 47 46
65 65 65 66 66 66 65 65 65 65 65 65 64 64 64 64 64 64 64 63 63 62 62 63 64 63 63 64 64 64 64 64 61 61 56 56 56 57 58 59 57 59 56 54 53 53 53 53 55 54 49 48 48 49 50 51 55 52 51 53 54 56 56 53 56 52 52 52 51 49 49 50 50 48 50 48 48 49 48 49 48 49 52 51 45
65 65 65 65 65 65 65 65 65 65 65 64 64 63 63 64 64 64 63 63 62 62 62 62 62 62 62 62 62 63 63 62 61 60 58 55 54 54 54 55 56 56 55 52 52 52 52 52 52 48 47 46 47 49 50 53 52 49 51 53 54 54 52 51 50 52 52 50 49 49 49 50 49 48 50 51 50 48 48 49 48 48 46 46 46
65 65 65 65 64 64 64 64 64 64 64 64 63 63 63 63 63 63 63 63 62 62 62 62 61 61 61 61 61 61 61 61 60 59 56 55 53 52 53 52 52 52 53 53 54 52 51 48 46 46 47 47 48 49 50 51 50 50 51 53 54 50 51 50 50 49 48 48 48 48 49 51 51 51 49 50 53 49 48 48 49 48 46 45 46
65 64 64 63 63 63 63 63 64 64 64 64 63 63 64 64 63 63 63 62 62 62 61 61 61 61 60 60 60 60 60 60 59 59 59 57 55 52 52 53 54 54 54 52 53 51 49 48 48 49 51 51 51 52 53 54 55 55 55 54 49 50 49 48 48 47 47 48 49 47 47 48 49 51 52 49 48 47 47 47 46 46 45 44 43
65 64 64 63 63 63 63 63 63 64 63 64 64 64 63 63 63 63 62 61 61 61 61 61 61 61 60 60 60 60 60 60 59 58 57 56 55 55 53 53 53 53 54 52 53 50 52 53 52 52 53 55 56 55 54 53 52 49 49 52 53 52 50 48 47 48 49 48 49 47 48 48 49 49 48 47 47 47 48 48 45 45 46 44 44
64 63 63 63 63 62 63 64 61 59 58 61 63 63 62 62 62 62 61 61 61 60 60 60 60 60 60 60 59 59 58 58 57 56 55 54 53 52 52 51 49 48 48 47 48 53 53 57 55 54 51 48 46 46 47 49 49 48 46 46 48 53 54 53 53 49 47 47 47 47 49 48 48 48 48 46 45 46 46 47 47 45 47 44 42
63 63 62 62 63 61 60 59 57 56 54 53 51 51 53 60 60 59 60 60 61 60 60 60 60 59 59 58 58 57 57 56 56 54 56 53 53 50 47 46 45 46 51 51 54 55 53 53 52 48 45 46 46 44 43 44 47 46 44 45 46 47 48 47 46 46 47 47 47 47 48 47 46 47 47 46 47 45 43 43 45 44 44 44 43
63 62 61 60 59 59 58 57 57 56 55 54 54 53 51 46 49 60 59 59 58 57 56 60 60 59 58 58 58 57 56 56 53 48 47 46 45 45 45 44 45 49 52 53 54 51 52 51 51 49 46 44 43 44 43 43 45 45 47 50 48 46 48 48 47 47 49 48 47 46 46 47 46 45 45 45 45 45 46 46 43 45 44 43 41
61 60 60 59 58 58 57 57 57 56 56 55 56 56 55 53 45 44 51 56 52 50 50 51 53 56 59 57 56 53 52 49 46 44 43 42 41 41 41 43 44 46 50 54 52 51 52 52 52 51 48 44 45 45 46 45 46 45 45 46 47 48 49 48 46 49 49 48 47 47 47 47 46 46 45 45 44 42 44 45 45 43 44 45 42
60 60 58 59 60 59 58 58 58 57 57 57 56 56 55 54 53 47 44 48 50 49 48 48 49 51 53 55 55 52 49 45 43 42 42 42 42 42 43 43 44 46 48 50 52 52 52 52 53 49 46 46 47 48 46 45 45 45 45 46 47 49 47 46 45 45 46 46 46 46 46 47 46 46 46 46 46 43 42 43 42 43 43 44 44
60 59 59 60 59 60 58 58 59 58 58 57 57 56 55 55 54 53 51 45 44 45 46 47 47 48 48 47 48 47 46 44 43 43 43 43 43 43 43 43 44 45 49 51 52 54 53 52 48 47 46 47 46 46 47 47 46 45 45 45 46 45 46 46 47 47 48 47 46 45 44 45 46 46 47 45 43 42 42 41 41 42 42 41 44
59 59 59 59 59 59 59 59 59 59 58 57 56 56 56 55 54 55 55 55 54 50 46 45 46 46 46 46 45 44 43 43 43 43 43 42 42 42 44 47 44 46 49 53 55 53 50 47 47 46 46 47 47 49 49 48 49 47 47 46 46 45 45 45 45 46 46 46 46 46 44 43 44 41 42 42 43 43 42 44 42 42 41 42 41
59 62 62 61 58 59 59 59 59 59 58 58 58 57 56 56 56 57 57 57 56 54 53 52 49 47 49 46 44 43 43 43 43 42 42 41 42 43 45 49 49 50 51 52 51 48 48 47 46 47 46 47 48 49 48 48 48 47 46 47 46 45 46 46 46 44 43 43 45 44 44 44 42 44 44 41 41 40 41 41 42 42 41 42 42
60 61 61 61 59 59 59 59 59 59 59 58 58 58 58 58 58 57 56 56 54 53 52 50 50 50 47 45 43 43 42 42 41 41 41 41 42 44 48 49 51 51 51 49 48 49 48 48 48 47 47 47 48 47 47 47 47 46 46 46 47 46 45 46 47 44 45 44 44 45 43 42 43 42 42 42 41 41 40 42 42 43 43 43 43
60 60 60 59 59 59 59 59 60 60 60 59 59 59 59 59 58 57 56 54 53 52 50 49 50 50 51 51 49 43 41 41 40 40 41 41 42 50 51 52 51 50 51 49 49 49 48 49 48 48 48 47 47 46 47 46 46 47 50 46 45 43 43 44 46 49 43 42 40 40 40 40 40 42 41 41 42 42 42 43 42 43 44 45 44
58 58 58 58 59 59 59 59 60 62 60 60 60 59 59 58 57 56 55 54 53 52 50 51 53 51 50 49 52 49 47 43 43 43 43 44 51 54 54 52 51 49 49 49 48 48 48 49 49 48 47 46 46 46 46 46 47 47 48 46 46 46 50 50 51 44 44 41 40 40 42 41 41 42 43 40 41 42 43 43 41 39 41 44 42
57 59 59 60 59 58 58 60 61 60 60 60 60 59 59 58 57 56 55 54 53 52 52 52 52 52 51 50 50 52 49 47 47 47 49 50 52 54 53 51 50 49 49 49 51 51 50 49 49 48 47 47 48 47 47 48 48 47 46 46 46 47 46 43 42 41 42 41 41 40 40 39 39 39 41 41 41 42 41 41 41 40 39 39 40
58 58 59 60 59 58 59 60 61 60 61 60 59 59 59 58 56 56 55 53 52 52 52 52 52 51 51 50 50 48 46 47 47 47 49 50 51 52 53 52 50 50 50 50 50 49 48 47 47 47 47 47 46 46 46 47 47 47 46 46 44 43 42 42 40 39 39 40 41 40 40 39 40 42 40 41 41 40 40 41 41 41 41 40 41
58 58 61 59 58 58 60 60 59 59 59 60 60 59 58 58 57 57 55 54 54 53 53 52 52 51 51 49 47 46 47 47 47 49 49 50 51 51 53 51 51 50 51 51 49 47 46 46 46 46 45 46 45 46 46 47 47 47 46 46 43 44 43 41 40 39 40 42 40 40 39 40 41 39 41 42 45 43 42 41 41 40 42 41 41
58 57 58 57 58 58 59 59 59 60 59 60 59 59 59 59 57 56 56 56 55 54 53 53 52 52 50 47 44 43 47 48 48 49 49 50 51 51 54 52 51 51 50 50 47 46 46 45 45 45 45 46 47 48 48 47 46 45 45 43 43 43 43 42 42 41 40 38 40 39 39 41 43 43 43 46 40 40 40 39 39 40 40 39 41
58 57 56 58 57 57 58 58 58 58 58 59 59 61 60 58 57 57 57 56 56 55 54 54 53 53 51 48 47 46 48 49 53 50 49 50 50 53 54 53 51 51 50 49 47 47 47 46 46 45 46 46 46 47 46 45 44 43 42 42 42 42 41 43 43 43 43 42 42 45 43 45 45 42 41 42 40 41 40 40 40 40 39 38 40
57 57 57 57 56 57 57 57 57 57 57 59 60 60 59 58 58 57 57 56 56 56 55 54 54 53 53 49 48 48 49 50 50 49 50 51 51 53 54 54 51 51 50 49 48 48 47 46 46 47 47 46 45 45 44 43 42 42 42 42 43 44 43 42 41 41 42 41 42 42 41 42 43 42 43 44 40 41 41 41 41 40 40 39 40
56 56 56 55 55 55 55 56 56 56 57 59 58 59 59 57 57 57 57 56 56 56 55 55 55 54 53 51 50 50 51 51 52 51 51 51 51 52 54 54 51 51 50 49 49 49 48 46 46 46 45 44 45 44 43 43 42 42 42 42 43 44 41 40 40 41 42 42 42 41 41 42 40 40 41 41 42 41 41 41 41 44 40 40 39
55 55 55 54 55 54 54 53 56 55 56 56 57 58 58 57 57 57 57 56 56 56 56 56 55 54 53 52 51 52 52 52 53 52 52 52 51 52 55 53 51 51 50 48 48 47 46 45 44 44 43 43 43 43 43 44 44 43 43 43 41 40 40 42 44 43 42 42 41 41 42 41 39 41 45 41 41 40 40 41 41 42 40 40 40
54 53 54 54 53 54 53 53 54 53 54 54 55 56 57 56 56 57 57 57 56 56 56 56 55 54 53 53 51 51 52 53 53 53 52 52 52 52 54 53 51 50 49 48 47 45 45 44 43 43 43 43 43 43 43 43 43 43 44 43 43 43 43 44 43 43 43 43 43 42 42 42 44 44 47 44 43 42 41 41 42 41 40 41 40
52 52 53 53 53 53 52 51 53 56 53 54 53 55 56 56 56 56 56 57 57 56 55 56 56 55 53 53 52 50 51 52 53 54 54 53 53 53 53 52 50 49 48 48 46 45 44 43 43 43 43 43 43 42 42 41 41 42 42 42 41 40 41 40 42 42 42 42 41 41 41 40 40 41 41 40 40 41 40 40 44 43 41 41 42
52 50 50 52 51 52 53 51 53 52 51 53 53 54 54 54 55 55 55 56 56 55 55 55 56 56 55 53 52 51 50 51 52 54 55 54 54 54 52 51 50 49 48 47 45 45 44 44 44 43 43 42 42 42 41 41 40 40 40 40 40 40 38 38 40 41 40 42 41 41 41 40 40 42 42 41 41 40 40 41 41 41 41 42 41
52 51 50 51 51 50 52 52 51 52 51 51 52 53 53 52 53 54 54 54 54 54 54 55 56 56 55 54 53 51 50 50 51 52 54 55 54 53 51 50 49 48 48 46 45 45 45 44 44 43 43 42 42 41 40 40 39 39 39 39 39 38 38 39 39 39 39 39 40 40 41 41 40 40 40 40 40 40 40 42 42 42 42 41 42
52 51 49 50 51 50 50 51 51 51 52 51 51 52 52 52 51 53 53 53 53 53 53 54 55 55 55 55 54 53 51 49 49 50 52 54 53 52 50 50 49 48 47 46 46 45 45 44 43 44 43 43 42 40 39 38 37 36 38 39 37 35 35 35 37 37 38 38 40 41 42 41 40 40 39 38 38 38 43 45 43 41 42 42 42